Regional Weather Roundup
Issued by NWS Wakefield, VA

Home | Current Version | Previous Version | Graphics & Text | Print | Product List | Glossary On
Versions: 1 2 3 4 5 6 7 8 9 10 11 12 13 14 15 16 17 18 19 20 21 22 23 24 25 26 27 28 29 30 31 32 33 34 35 36 37 38 39 40 41 42 43 44 45 46 47 48 49 50
000
ASUS41 KAKQ 260010
RWRAKQ

REGIONAL WEATHER ROUNDUP
NATIONAL WEATHER SERVICE WAKEFIELD VA
700 PM EST SUN JAN 25 2015

Note: "fair" indicates few or no clouds below 12,000 feet with no
significant weather and/or obstructions to visibility. * = Denotes
station may not report precipitation (e.g., rain,snow,etc.),
thunder or fog.

VAZ042-051-052>054-056-260100-
NORTHERN VIRGINIA

CITY           SKY/WX    TMP DP  RH WIND       PRES   REMARKS
WASH NATIONAL  CLOUDY    48  30  49 SE3       29.86R
DULLES         CLOUDY    43  31  62 CALM      29.84R
FORT BELVOIR   CLOUDY    43  34  69 CALM      29.85R
QUANTICO       PTCLDY    41  33  73 CALM      29.86R
FREDERICKSBRG* CLOUDY    41  35  79 SE3       29.84R
STAFFORD*      CLOUDY    40  32  74 CALM      29.88S
WARRENTON      CLOUDY    40  37  87 CALM      29.83R
CULPEPER*      CLOUDY    39  36  87 CALM      29.84R
MANASSAS*      CLOUDY    43  37  81 CALM      29.84R
LEESBURG*      CLOUDY    43  36  75 CALM      29.85R
WINCHESTER     CLOUDY    39  30  70 CALM      29.82R
FRONT ROYAL*   CLOUDY    37  32  81 CALM      29.80S
LURAY*         FAIR      37  34  87 CALM      29.81R
$$

VAZ048-049-060>072-079>083-260100-
CENTRAL AND SOUTH CENTRAL VIRGINIA

CITY           SKY/WX    TMP DP  RH WIND       PRES   REMARKS
RICHMOND       MOCLDY    42  35  76 SE6       29.84R
CHESTERFIELD*  FAIR      43  27  52 CALM      29.85R
PETERSBURG*    MOCLDY    42  35  74 CALM      29.86R
HANOVER        MOCLDY    39  34  82 CALM      29.85R
TAPPAHANNOCK*  MOCLDY    42  30  64 E3        29.86R
QUINTON*       FAIR      40  35  79 CALM      29.85R
CHARLOTTSVILLE MOCLDY    43  32  65 CALM      29.81R
GORDONSVILLE*  FAIR      37  33  86 CALM      29.82R
ORANGE*        MOCLDY    36  34  93 CALM      29.85R
LOUISA*        PTCLDY    37  34  87 CALM      29.82R
BUMPASS*       FAIR      39  33  79 CALM      29.83R
FARMVILLE*     CLOUDY    45  33  63 CALM      29.81R
CREWE*         FAIR      42  33  69 S5        29.83R
FORT PICKETT*  FAIR      44  33  65 SE5       29.84R
CHASE CITY*    FAIR      42  37  82 SE3       29.83R
CLARKSVILLE*   FAIR      45  32  61 CALM      29.83R
SOUTH HILL*    CLEAR     42  34  75 S5        29.90R
LAWRENCEVILLE* FAIR      42  35  75 CALM      29.84R
EMPORIA*       CLEAR     36  34  93 SE5       29.87S
$$

VAZ088>098-260100-
SOUTHEAST VIRGINIA

CITY           SKY/WX    TMP DP  RH WIND       PRES   REMARKS
NORFOLK        CLEAR     45  31  58 S7        29.87R
VIRGINIA BEACH PTCLDY    45  33  63 S12       29.88R
NORFOLK NAVAL  PTCLDY    49  32  52 S7        29.88S
WEST POINT*    CLEAR     43  32  64 E5        29.87S
SALUDA*        FAIR      41  32  69 SE6       29.87S
NEWPORT NEWS   CLEAR     43  32  65 SE6       29.87S
LANGLEY AFB    CLEAR     39  32  77 SE2       29.87S
FORT EUSTIS    CLEAR     39  35  85 S2        29.85R
WILLIAMSBURG*    N/A     43  37  81 SE5       29.87S
HR EXEC AP*    FAIR      41  34  75 SE6       29.90R
FRANKLIN*      CLEAR     38  35  87 CALM      29.88R
WAKEFIELD      CLEAR     38  34  85 CALM      29.86R
$$

VAZ020-022-025-037-045-260100-
WEST CENTRAL AND SOUTHWEST VIRGINIA

CITY           SKY/WX    TMP DP  RH WIND       PRES   REMARKS
STAUNTON*      CLOUDY    41  32  70 CALM      29.80S
WAYNESBORO*    FAIR      38  32  77 CALM      29.78S
HOT SPRINGS VA CLOUDY    35  32  90 S5        29.71S
LYNCHBURG      CLOUDY    46  31  55 SE5       29.80R
DANVILLE       CLEAR     49  31  49 SE3       29.81R
SOUTH BOSTON*  FAIR      45  32  58 CALM      29.82R
MARTINSVILLE   PTCLDY    42  32  67 CALM      29.81R
ROANOKE        MOCLDY    47  29  49 S3        29.79R
BLACKSBURG     MOCLDY    43  28  56 SE5       29.78S
DUBLIN*        MOCLDY    44  31  60 SE3       29.76R
MARION*        MOCLDY    45  28  51 CALM      29.75R
HILLSVILLE*    MOCLDY    42  29  60 S6        29.74S
RICHLANDS*     DRIZZLE   43  27  52 CALM      29.72R
WISE*          CLOUDY    43  30  61 SW5       29.71S
ABINGDON*      CLOUDY    45  32  61 CALM      29.72R
$$

MDZ021>025-VAZ099-100-260100-
SOUTHERN MARYLAND AND THE DELMARVA PENINSULA

CITY           SKY/WX    TMP DP  RH WIND       PRES   REMARKS
PATUXENT RIVER PTCLDY    41  30  65 SE5       29.87R
BAY BRIDGE APT   N/A     43  32  65 SE6       29.88R
LEONARDTOWN    CLOUDY    43  32  65 SE6       29.88R
DOVER          CLOUDY    44  34  68 S3        29.88R
GEORGETOWN     CLOUDY    42  32  67 CALM      29.89R
EASTON         CLOUDY    46  32  57 S6        29.91R
CAMBRIDGE      CLOUDY    43  32  65 SE6       29.88R
SALISBURY      PTCLDY    40  30  67 CALM      29.89R
OCEAN CITY     PTCLDY    40  32  73 SW3       29.90R
WALLOPS ISLAND CLEAR     38  32  79 SW8       29.90R
ACCOMACK*      CLEAR     39  32  75 S6        29.89S
$$

NCZ012>017-030>032-260100-
NORTH CENTRAL AND EASTERN NORTH CAROLINA

CITY           SKY/WX    TMP DP  RH WIND       PRES   REMARKS
ROANOKE RAPIDS FAIR      43  34  70 SE3       29.86R
RALEIGH        PTCLDY    47  32  56 S5        29.84R
ELIZABETH CITY CLEAR     43  36  76 SE7       29.90R
AHOSKIE*       CLEAR     38  34  85 CALM      29.88R
EDENTON*       CLEAR     44  36  72 S8        29.89R
CURRITUCK*     CLEAR     41  32  70 CALM      29.91R
KILL DEVIL HLS CLEAR     42  32  68 S3        29.90S
MANTEO         CLEAR     43  34  70 S7        29.92S
CAPE HATTERAS  CLEAR     48  36  63 SW8       29.92S
TARBORO*       FAIR      40  36  87 CALM      29.88R
GOLDSBORO      CLEAR     44  42  91 SE8       29.85R
WASHINGTON     CLEAR     43  35  73 SE5       29.89R
GREENVILLE     CLEAR     43  32  65 CALM      29.90R
NEW BERN       CLEAR     46  35  65 S5        29.90S
WILMINGTON     CLEAR     44  35  70 CALM      29.89S
$$

VAZ048-260100-
ELSEWHERE

CITY           SKY/WX    TMP DP  RH WIND       PRES   REMARKS
HARRISBURG PA  LGT RAIN  36  33  89 CALM      29.87R FOG
BALTIMORE      CLOUDY    44  31  60 E5        29.86R
ANNAPOLIS      CLOUDY    40  34  79 SE6       29.87R
ANDREWS AFB    CLOUDY    44  33  64 E3        29.85R
PHILADELPHIA   CLOUDY    42  32  67 N5        29.90R
HENDERSON NC   CLEAR     46  31  56 CALM      29.84R
GREENSBORO     PTCLDY    47  32  56 S8        29.79R
ROCKY MOUNT    CLEAR     42  35  76 CALM      29.86R
$$

VAZ100-260100-
MARINE

STATION/POSITION TIME  TEMP    WIND        PRES    WAVE   SWELL
                       AIR SEA DIR/SP/G            HT/PER HT/PER
                 (UTC) (F)     (DEG/KT/KT) (MB)    (FT/S) (FT/S)
BRANDYWINE LGT   0000   46 37  230/ 11/ 12 1012.1R
CAPE MAY NJ      0000   42 38  230/  1/  2 1011.6R
LEWES DE         0000   44 38  230/  4/  6 1012.2R
15NM E FENWICK I 0000   42 42              1012.1R   3/11
OCEAN-CITY-INLET 0000   42 40  230/  5/  6 1012.1R
WACHAPREAGUE VA  0000   41 43  210/  2/  3 1012.5R
THOMAS POINT MD  0000   41 38  150/  8/  9 1012.7R
GOOSES REEF MD   0000   40     VRB 12/ 14  1010.2R
COVE POINT MD    0000   39     180/ 10/ 11 1011.4R
SOLOMONS ISLAND  0000      39                N/A
BISHOPS HEAD MD  0000   40 39  160/  8/  8 1011.2R
PINEY POINT MD   0000          160/ 10/ 11   N/A
POTOMAC MD       0000   41     170/  8/ 10 1010.6R
CAMBRIDGE MD     0000   44 37  180/  4/  6 1011.5R
LEWISETTA VA     0000   43 39  170/  7/  9 1011.1S
RAPPAHANNOCK LGT 0000          130/ 10/ 11 1012.2F
STINGRAY PT      0000   42     150/  8/ 10 1012.2S
YORK RVR RNG VA  0000   42     140/ 12/ 13 1010.5F
YORKTOWN VA      0000   43 41  150/  6/  8 1010.9F
JAMESTOWN VA     0000   44     150/  4/  4   N/A
DOMINION TERM VA 0000   47     110/  3/  5 1011.3F
KIPTOPEKE VA     0000      46  170/ 12/ 13   N/A
CHES BAY BRIDGE  0000   45 42  140/  8/  9 1011.3F
CAPE HENRY VA    0000   44     160/  8/ 12 1010.7S
CHESAPEAKE LGHT  2300   45     170/ 16/ 17 1012.4R
WILLOUBY STN VA  0000   46     150/  6/  6 1011.8F
S CRANEY ISL VA  0000          210/  4/  7 1011.4F
CAPE HENRY BUOY  0000      45                N/A     3/11   2/11
1ST LANDING BUOY 0000   44     150/  8/ 10 1011.8R
CAPE CHARLES BUO 0000      43                N/A     3/10   2/10
OFFSHORE WE BUOY 0000      47                N/A     3/10   3/10
64NM E OF VA BCH 0000   48 52  170/  8/ 10 1012.9R   4/10   3/10
DUCK PIER NC     0000   44 44  160/  9/ 11 1012.1R
44100 DUCK FRF   0000      45                N/A     3/10   2/11
44056 DUCK FRF   0000      43                N/A     3/10   2/11
OREGON INLET NC  0000   42 46  140/  5/  7 1013.0F
HATTERAS NC      0000   49 53  210/  4/  6 1013.5R



USA.gov is the U.S. government's official web portal to all federal, state and local government web resources and services.